Location: Unspecified
(43.4680°N, 87.1740°E)
Time: 04:33:25
(UTC+00:00)

USA 215 - Pass Details

Date: 17 April 2021
Orbit: 1101 x 1107 km, 123.0° (Epoch: 15 May)

Event Time Altitude Azimuth Distance (km) Brightness Sun altitude
Exits shadow 16:08:15 53° 212° (SSW) 1,331 3.5 -29.1°
Maximum altitude 16:08:42 54° 227° (SW) 1,318 3.5 -29.1°
Drops below altitude 10° 16:15:05 10° 304° (WNW) 2,962 6.3 -29.7°
Sets 16:17:39 0° 309° (NW) 3,923 7.2 -30.0°
